contact:dominique.lefevre@mio.osupytheas.fr, maurice.libes@osupytheas.fr, didier.mallarino@osupytheas.fr
Project:EMSO http://www.emso-fr.org/EMSO-France
Depth: 2436.0 m
Title:EMSO Ligure Ouest : Data MII capteur AQUADOPP
Date,Latitude,Longitude,X_East,Y_North,Z_Up,Amplitude_X,Amplitude_Y,Amplitude_Z,Batterie,SoundSpeed,Heading,Pitch,Roll,Pressure,TIS,Speed,Direction
, degrees North, degrees East, m.s-1, m.s-1,m.s-1, 1, 1, 1, Volt, m.s-1, degree, degree, degree, dbar, degree_C, m.s-1, degree
2023-03-04T00:04:03,42.805,6.029,-0.022,-0.009,0.004,107.0,106.0,106.0,13.3,1505.2,316.1,-0.8,1.8,2471.232,13.28,0.023,247.8
2023-03-04T00:07:03,42.805,6.029,-0.028,-0.019,-0.041,106.0,107.0,105.0,13.4,1505.2,317.6,-0.7,1.8,2471.258,13.29,0.033,235.8
2023-03-04T00:10:03,42.805,6.029,-0.034,0.018,0.001,108.0,106.0,105.0,13.4,1505.2,335.9,-0.7,1.8,2471.217,13.29,0.038,297.9
2023-03-04T00:13:03,42.805,6.029,-0.027,0.014,-0.035,108.0,107.0,105.0,13.3,1505.2,329.8,-0.7,1.8,2471.22,13.29,0.03,297.4
2023-03-04T00:16:03,42.805,6.029,-0.045,0.03,-0.033,107.0,107.0,104.0,13.4,1505.2,326.5,-0.8,1.8,2471.24,13.29,0.054,303.7
2023-03-04T00:19:03,42.805,6.029,-0.033,-0.002,-0.019,107.0,107.0,104.0,13.3,1505.2,322.9,-0.8,1.8,2471.271,13.29,0.033,266.5
2023-03-04T00:22:03,42.805,6.029,-0.047,0.008,-0.019,107.0,105.0,104.0,13.4,1505.2,321.4,-0.7,1.8,2471.218,13.29,0.047,279.7
2023-03-04T00:25:03,42.805,6.029,-0.021,-0.005,-0.015,106.0,106.0,103.0,13.4,1505.2,328.8,-0.8,1.8,2471.198,13.29,0.021,256.6
2023-03-04T00:28:03,42.805,6.029,-0.01,0.006,-0.014,108.0,107.0,104.0,13.4,1505.2,329.6,-0.7,1.8,2471.204,13.29,0.011,301.0
2023-03-04T00:31:03,42.805,6.029,-0.03,-0.007,-0.01,107.0,106.0,105.0,13.3,1505.2,326.3,-0.8,1.8,2471.243,13.29,0.03,256.9
2023-03-04T00:34:03,42.805,6.029,-0.014,-0.013,0.011,107.0,107.0,105.0,13.4,1505.2,331.2,-0.8,1.8,2471.246,13.29,0.019,227.1
2023-03-04T00:37:03,42.805,6.029,-0.022,0.016,0.017,106.0,105.0,104.0,13.4,1505.2,328.5,-0.8,1.8,2471.181,13.29,0.027,306.0
2023-03-04T00:40:03,42.805,6.029,-0.037,-0.001,-0.013,107.0,106.0,104.0,13.3,1505.2,315.0,-0.8,1.8,2471.216,13.29,0.037,268.5
2023-03-04T00:43:03,42.805,6.029,-0.031,-0.002,-0.01,106.0,107.0,104.0,13.4,1505.2,321.6,-0.8,1.8,2471.213,13.29,0.031,266.3
2023-03-04T00:46:03,42.805,6.029,-0.027,0.0,-0.031,107.0,107.0,104.0,13.4,1505.2,324.6,-0.8,1.8,2471.221,13.29,0.026,270.0
2023-03-04T00:49:03,42.805,6.029,-0.048,0.011,-0.02,108.0,107.0,104.0,13.4,1505.2,332.1,-0.8,1.8,2471.231,13.29,0.049,282.9
2023-03-04T00:52:03,42.805,6.029,-0.035,-0.002,-0.043,106.0,106.0,104.0,13.4,1505.2,332.9,-0.8,1.8,2471.202,13.29,0.035,266.7
2023-03-04T00:55:03,42.805,6.029,-0.024,0.01,-0.018,107.0,107.0,104.0,13.4,1505.2,323.8,-0.8,1.8,2471.206,13.29,0.026,292.6
2023-03-04T00:58:03,42.805,6.029,-0.035,-0.021,-0.019,107.0,107.0,104.0,13.4,1505.2,320.4,-0.8,1.8,2471.206,13.29,0.04,239.0
2023-03-04T01:04:03,42.805,6.029,-0.044,0.001,-0.018,108.0,106.0,106.0,13.4,1505.2,323.1,-0.7,1.8,2471.262,13.28,0.044,271.3
2023-03-04T01:07:03,42.805,6.029,-0.022,0.001,-0.032,107.0,108.0,106.0,13.4,1505.2,317.8,-0.7,1.8,2471.259,13.29,0.022,272.6
2023-03-04T01:10:03,42.805,6.029,-0.029,-0.018,-0.033,108.0,108.0,105.0,13.3,1505.2,320.3,-0.8,1.8,2471.275,13.29,0.034,238.2
2023-03-04T01:13:03,42.805,6.029,-0.029,0.0,-0.029,107.0,106.0,104.0,13.4,1505.2,333.0,-0.8,1.8,2471.241,13.29,0.028,270.0
2023-03-04T01:16:03,42.805,6.029,-0.009,0.013,-0.001,107.0,106.0,104.0,13.4,1505.2,325.1,-0.8,1.8,2471.214,13.29,0.015,325.3
2023-03-04T01:19:03,42.805,6.029,-0.024,0.009,-0.014,107.0,107.0,104.0,13.3,1505.2,322.2,-0.8,1.8,2471.228,13.29,0.025,290.6
2023-03-04T01:22:03,42.805,6.029,-0.027,0.024,-0.038,107.0,107.0,104.0,13.4,1505.2,331.6,-0.8,1.8,2471.232,13.29,0.036,311.6
2023-03-04T01:25:03,42.805,6.029,-0.03,0.01,0.0,107.0,106.0,105.0,13.4,1505.2,326.0,-0.7,1.8,2471.202,13.29,0.031,288.4
2023-03-04T01:28:03,42.805,6.029,-0.003,-0.022,-0.031,108.0,107.0,105.0,13.4,1505.2,322.5,-0.8,1.8,2471.219,13.29,0.022,187.8
2023-03-04T01:31:03,42.805,6.029,-0.024,0.002,-0.026,108.0,108.0,104.0,13.4,1505.2,338.0,-0.7,1.8,2471.248,13.29,0.024,274.8
2023-03-04T01:34:03,42.805,6.029,-0.021,-0.004,-0.035,107.0,109.0,105.0,13.4,1505.2,338.9,-0.8,1.8,2471.27,13.29,0.021,259.2
2023-03-04T01:37:03,42.805,6.029,-0.022,-0.002,0.001,107.0,107.0,106.0,13.4,1505.2,337.2,-0.8,1.8,2471.205,13.29,0.022,264.8
2023-03-04T01:40:03,42.805,6.029,-0.017,-0.006,-0.009,108.0,107.0,105.0,13.4,1505.2,336.2,-0.8,1.8,2471.236,13.29,0.018,250.6
2023-03-04T01:43:03,42.805,6.029,-0.035,0.02,-0.012,107.0,106.0,106.0,13.4,1505.2,322.4,-0.8,1.8,2471.234,13.29,0.04,299.7
2023-03-04T01:46:03,42.805,6.029,-0.049,0.006,0.007,107.0,107.0,105.0,13.4,1505.2,333.0,-0.8,1.9,2471.23,13.29,0.049,277.0
2023-03-04T01:49:03,42.805,6.029,-0.035,-0.003,-0.038,108.0,106.0,105.0,13.4,1505.2,321.0,-0.8,1.8,2471.242,13.29,0.035,265.1
2023-03-04T01:52:03,42.805,6.029,-0.035,-0.006,-0.005,109.0,107.0,104.0,13.4,1505.2,326.7,-0.8,1.8,2471.236,13.29,0.035,260.3
2023-03-04T01:55:03,42.805,6.029,-0.017,-0.011,-0.038,108.0,107.0,105.0,13.3,1505.2,319.9,-0.8,1.8,2471.273,13.29,0.02,237.1
2023-03-04T01:58:03,42.805,6.029,-0.016,0.01,-0.024,109.0,108.0,107.0,13.4,1505.2,333.9,-0.8,1.8,2471.27,13.29,0.018,302.0
2023-03-04T02:04:03,42.805,6.029,-0.022,0.006,-0.013,107.0,109.0,104.0,13.4,1505.2,326.0,-0.8,1.8,2471.266,13.29,0.022,285.3
2023-03-04T02:07:03,42.805,6.029,-0.029,0.002,-0.017,108.0,106.0,105.0,13.3,1505.2,326.8,-0.8,1.8,2471.251,13.29,0.029,273.9
2023-03-04T02:10:03,42.805,6.029,-0.008,0.015,-0.002,107.0,107.0,105.0,13.4,1505.2,325.3,-0.8,1.8,2471.29,13.29,0.017,331.9
2023-03-04T02:13:03,42.805,6.029,-0.025,0.028,-0.009,109.0,107.0,105.0,13.4,1505.2,330.4,-0.8,1.8,2471.29,13.29,0.037,318.2
2023-03-04T02:16:03,42.805,6.029,-0.031,0.004,-0.017,109.0,107.0,107.0,13.3,1505.2,322.4,-0.8,1.8,2471.262,13.29,0.031,277.3
2023-03-04T02:19:03,42.805,6.029,-0.019,0.011,0.0,109.0,108.0,104.0,13.3,1505.2,323.4,-0.7,1.8,2471.278,13.29,0.021,300.1
2023-03-04T02:22:03,42.805,6.029,-0.027,-0.004,0.005,110.0,108.0,105.0,13.4,1505.2,321.3,-0.8,1.8,2471.262,13.29,0.027,261.6
2023-03-04T02:25:03,42.805,6.029,-0.036,0.001,0.002,109.0,109.0,106.0,13.3,1505.2,331.1,-0.8,1.8,2471.274,13.29,0.036,271.6
2023-03-04T02:28:03,42.805,6.029,-0.018,0.0,-0.019,108.0,108.0,106.0,13.4,1505.2,330.8,-0.8,1.8,2471.286,13.29,0.018,270.0
2023-03-04T02:31:03,42.805,6.029,-0.042,0.012,-0.015,109.0,108.0,106.0,13.4,1505.2,340.2,-0.7,1.8,2471.279,13.29,0.043,285.9
2023-03-04T02:34:03,42.805,6.029,-0.016,0.027,0.002,109.0,111.0,106.0,13.4,1505.2,340.3,-0.8,1.8,2471.251,13.29,0.031,329.3
2023-03-04T02:37:03,42.805,6.029,-0.037,0.036,0.015,108.0,107.0,105.0,13.4,1505.2,340.2,-0.7,1.8,2471.238,13.29,0.051,314.2
2023-03-04T02:40:03,42.805,6.029,-0.027,0.032,-0.015,107.0,107.0,106.0,13.4,1505.2,340.2,-0.8,1.8,2471.293,13.29,0.041,319.8
2023-03-04T02:43:03,42.805,6.029,-0.024,0.029,-0.001,107.0,107.0,105.0,13.4,1505.2,341.5,-0.7,1.8,2471.317,13.29,0.037,320.4
2023-03-04T02:46:03,42.805,6.029,-0.012,0.002,-0.037,107.0,107.0,105.0,13.4,1505.2,327.9,-0.7,1.8,2471.268,13.29,0.012,279.5
2023-03-04T02:49:03,42.805,6.029,-0.045,-0.002,-0.034,109.0,108.0,104.0,13.4,1505.2,321.4,-0.7,1.8,2471.293,13.29,0.045,267.5
2023-03-04T02:52:03,42.805,6.029,-0.036,0.016,-0.035,107.0,107.0,107.0,13.4,1505.2,331.6,-0.8,1.8,2471.265,13.29,0.039,294.0
2023-03-04T02:55:03,42.805,6.029,-0.027,0.005,-0.031,109.0,108.0,105.0,13.3,1505.2,324.9,-0.8,1.8,2471.261,13.29,0.027,280.5
2023-03-04T02:58:03,42.805,6.029,-0.03,0.016,-0.012,108.0,107.0,104.0,13.3,1505.2,321.2,-0.8,1.8,2471.289,13.29,0.034,298.1
2023-03-04T03:04:03,42.805,6.029,-0.047,0.023,-0.042,107.0,109.0,106.0,13.4,1505.2,338.3,-0.8,1.8,2471.331,13.29,0.052,296.1
2023-03-04T03:07:03,42.805,6.029,-0.057,0.003,-0.007,109.0,108.0,105.0,13.4,1505.2,317.9,-0.8,1.8,2471.306,13.29,0.057,273.0
2023-03-04T03:10:03,42.805,6.029,-0.043,0.001,-0.002,107.0,108.0,106.0,13.3,1505.2,329.3,-0.8,1.8,2471.35,13.29,0.043,271.3
2023-03-04T03:13:03,42.805,6.029,-0.051,0.016,-0.04,108.0,108.0,106.0,13.3,1505.2,324.9,-0.8,1.8,2471.342,13.29,0.053,287.4
2023-03-04T03:16:03,42.805,6.029,-0.031,0.011,-0.01,109.0,108.0,110.0,13.4,1505.2,330.8,-0.8,1.8,2471.33,13.29,0.032,289.5
2023-03-04T03:19:03,42.805,6.029,-0.046,0.019,-0.042,109.0,108.0,105.0,13.3,1505.2,328.4,-0.8,1.8,2471.372,13.29,0.049,292.4
2023-03-04T03:22:03,42.805,6.029,-0.041,0.025,-0.001,107.0,107.0,105.0,13.4,1505.2,328.3,-0.7,1.8,2471.275,13.29,0.048,301.4
2023-03-04T03:25:03,42.805,6.029,-0.034,0.012,-0.001,108.0,110.0,105.0,13.4,1505.2,322.6,-0.8,1.8,2471.312,13.29,0.036,289.4
2023-03-04T03:28:03,42.805,6.029,-0.061,0.003,-0.022,107.0,107.0,105.0,13.3,1505.2,325.5,-0.8,1.8,2471.323,13.29,0.061,272.8
2023-03-04T03:31:03,42.805,6.029,-0.033,0.026,0.009,109.0,107.0,104.0,13.4,1505.2,324.6,-0.8,1.8,2471.341,13.29,0.042,308.2
2023-03-04T03:34:03,42.805,6.029,-0.048,0.043,-0.014,108.0,107.0,106.0,13.4,1505.2,331.9,-0.8,1.8,2471.326,13.29,0.064,311.9
2023-03-04T03:37:03,42.805,6.029,-0.023,0.038,-0.009,107.0,107.0,106.0,13.4,1505.2,340.2,-0.7,1.8,2471.273,13.29,0.044,328.8
2023-03-04T03:40:03,42.805,6.029,-0.036,0.027,-0.001,109.0,108.0,105.0,13.4,1505.2,316.1,-0.7,1.8,2471.348,13.29,0.045,306.9
2023-03-04T03:43:03,42.805,6.029,-0.054,0.022,0.013,108.0,107.0,105.0,13.4,1505.2,324.5,-0.7,1.8,2471.316,13.29,0.058,292.2
2023-03-04T03:46:03,42.805,6.029,-0.037,0.007,-0.027,107.0,107.0,106.0,13.3,1505.2,324.4,-0.7,1.8,2471.323,13.29,0.037,280.7
2023-03-04T03:49:03,42.805,6.029,-0.019,0.02,-0.026,108.0,107.0,105.0,13.4,1505.2,335.9,-0.8,1.8,2471.362,13.29,0.027,316.5
2023-03-04T03:52:03,42.805,6.029,-0.041,-0.002,-0.02,107.0,108.0,107.0,13.4,1505.2,327.2,-0.7,1.8,2471.352,13.29,0.041,267.2
2023-03-04T03:55:03,42.805,6.029,-0.007,0.033,0.014,108.0,107.0,105.0,13.3,1505.2,339.1,-0.8,1.8,2471.36,13.29,0.033,348.0
2023-03-04T03:58:03,42.805,6.029,-0.048,0.032,0.004,108.0,106.0,106.0,13.3,1505.2,332.9,-0.7,1.8,2471.344,13.29,0.057,303.7
2023-03-04T04:04:03,42.805,6.029,-0.031,0.034,-0.009,107.0,108.0,105.0,13.3,1505.2,338.5,-0.8,1.8,2471.385,13.29,0.046,317.6
2023-03-04T04:07:03,42.805,6.029,-0.026,0.015,-0.011,107.0,106.0,105.0,13.3,1505.2,338.9,-0.8,1.8,2471.356,13.29,0.03,300.0
2023-03-04T04:10:03,42.805,6.029,-0.033,0.009,-0.006,109.0,107.0,105.0,13.4,1505.2,328.3,-0.7,1.8,2471.394,13.29,0.034,285.3
2023-03-04T04:13:03,42.805,6.029,-0.029,0.015,0.01,107.0,107.0,104.0,13.4,1505.2,338.0,-0.7,1.8,2471.365,13.29,0.032,297.4
2023-03-04T04:16:03,42.805,6.029,-0.025,0.011,-0.03,108.0,107.0,105.0,13.4,1505.2,317.9,-0.8,1.8,2471.364,13.29,0.027,293.7
2023-03-04T04:19:03,42.805,6.029,-0.017,-0.001,0.015,107.0,107.0,106.0,13.3,1505.2,316.6,-0.8,1.8,2471.327,13.29,0.017,266.6
2023-03-04T04:22:03,42.805,6.029,-0.024,0.02,-0.024,108.0,106.0,104.0,13.4,1505.2,338.7,-0.8,1.8,2471.406,13.29,0.031,309.8
2023-03-04T04:25:03,42.805,6.029,-0.032,0.023,-0.003,108.0,107.0,105.0,13.4,1505.2,321.0,-0.7,1.8,2471.351,13.29,0.039,305.7
2023-03-04T04:28:03,42.805,6.029,-0.036,0.011,-0.015,108.0,107.0,105.0,13.4,1505.2,316.0,-0.8,1.8,2471.369,13.29,0.037,287.0
2023-03-04T04:31:03,42.805,6.029,-0.041,0.018,-0.019,108.0,108.0,105.0,13.4,1505.2,324.8,-0.8,1.8,2471.366,13.29,0.044,293.7
2023-03-04T04:34:03,42.805,6.029,-0.038,0.026,-0.012,108.0,108.0,105.0,13.4,1505.2,322.7,-0.8,1.8,2471.395,13.29,0.046,304.4
2023-03-04T04:37:03,42.805,6.029,-0.026,0.015,-0.027,109.0,108.0,105.0,13.4,1505.2,336.4,-0.8,1.8,2471.396,13.29,0.03,300.0
2023-03-04T04:40:03,42.805,6.029,-0.027,0.019,-0.016,109.0,107.0,105.0,13.3,1505.2,339.2,-0.8,1.8,2471.374,13.29,0.033,305.1
2023-03-04T04:43:03,42.805,6.029,-0.015,0.023,-0.011,108.0,106.0,106.0,13.4,1505.2,332.3,-0.8,1.8,2471.403,13.29,0.027,326.9
2023-03-04T04:46:03,42.805,6.029,-0.029,0.023,-0.014,107.0,106.0,105.0,13.4,1505.2,340.6,-0.8,1.8,2471.371,13.29,0.037,308.4
2023-03-04T04:49:03,42.805,6.029,-0.036,0.01,0.0,109.0,108.0,106.0,13.3,1505.2,326.5,-0.8,1.8,2471.383,13.29,0.037,285.5
2023-03-04T04:52:03,42.805,6.029,-0.039,0.005,-0.018,108.0,108.0,106.0,13.4,1505.2,328.2,-0.7,1.8,2471.395,13.29,0.039,277.3
2023-03-04T04:55:03,42.805,6.029,-0.026,0.023,0.01,107.0,107.0,105.0,13.4,1505.2,321.0,-0.8,1.8,2471.404,13.29,0.034,311.5
2023-03-04T04:58:03,42.805,6.029,-0.029,0.021,-0.011,108.0,108.0,105.0,13.3,1505.2,332.6,-0.8,1.8,2471.402,13.29,0.035,305.9
2023-03-04T05:04:03,42.805,6.029,-0.053,0.007,-0.014,108.0,107.0,106.0,13.3,1505.2,317.7,-0.8,1.8,2471.433,13.28,0.053,277.5
2023-03-04T05:07:03,42.805,6.029,-0.028,0.029,0.009,109.0,107.0,105.0,13.3,1505.2,329.0,-0.7,1.8,2471.433,13.29,0.04,316.0
2023-03-04T05:10:03,42.805,6.029,-0.028,0.015,-0.02,109.0,107.0,106.0,13.3,1505.2,321.3,-0.8,1.8,2471.427,13.29,0.031,298.2
2023-03-04T05:13:03,42.805,6.029,-0.023,0.015,-0.008,108.0,108.0,106.0,13.3,1505.2,333.4,-0.8,1.8,2471.408,13.29,0.027,303.1
2023-03-04T05:16:03,42.805,6.029,-0.048,0.026,-0.019,107.0,107.0,105.0,13.3,1505.2,333.0,-0.8,1.8,2471.403,13.29,0.054,298.4
2023-03-04T05:19:03,42.805,6.029,-0.025,0.008,-0.007,108.0,109.0,105.0,13.4,1505.2,321.2,-0.8,1.8,2471.417,13.29,0.026,287.7
2023-03-04T05:22:03,42.805,6.029,-0.03,0.022,0.011,109.0,107.0,105.0,13.4,1505.2,331.0,-0.8,1.8,2471.382,13.29,0.037,306.3
2023-03-04T05:25:03,42.805,6.029,-0.056,-0.005,-0.01,110.0,107.0,105.0,13.4,1505.2,316.1,-0.8,1.8,2471.423,13.29,0.056,264.9
2023-03-04T05:28:03,42.805,6.029,-0.029,0.02,-0.014,108.0,108.0,104.0,13.4,1505.2,319.4,-0.8,1.8,2471.405,13.29,0.035,304.6
2023-03-04T05:31:03,42.805,6.029,-0.032,0.02,0.01,108.0,106.0,105.0,13.4,1505.2,337.3,-0.8,1.8,2471.412,13.29,0.037,302.0
2023-03-04T05:34:03,42.805,6.029,-0.032,0.029,0.03,107.0,106.0,105.0,13.3,1505.2,319.7,-0.8,1.8,2471.398,13.29,0.043,312.2
2023-03-04T05:37:03,42.805,6.029,-0.053,0.041,0.0,109.0,107.0,106.0,13.3,1505.2,326.0,-0.8,1.8,2471.377,13.29,0.067,307.7
2023-03-04T05:40:03,42.805,6.029,-0.028,0.026,0.031,108.0,107.0,105.0,13.3,1505.2,328.5,-0.8,1.8,2471.371,13.29,0.038,312.9
2023-03-04T05:43:03,42.805,6.029,-0.049,0.022,-0.001,109.0,107.0,106.0,13.3,1505.2,329.6,-0.8,1.8,2471.386,13.29,0.053,294.2
2023-03-04T05:46:03,42.805,6.029,-0.028,0.032,0.001,108.0,107.0,105.0,13.4,1505.2,331.1,-0.8,1.8,2471.396,13.29,0.042,318.8
2023-03-04T05:49:03,42.805,6.029,-0.036,0.013,0.003,108.0,108.0,105.0,13.4,1505.2,334.3,-0.8,1.8,2471.361,13.29,0.038,289.9
2023-03-04T05:52:03,42.805,6.029,-0.016,0.014,0.006,108.0,108.0,105.0,13.4,1505.2,327.7,-0.7,1.8,2471.385,13.29,0.021,311.2
2023-03-04T05:55:03,42.805,6.029,-0.023,0.019,-0.008,109.0,107.0,106.0,13.4,1505.2,320.9,-0.8,1.8,2471.387,13.29,0.029,309.6
2023-03-04T05:58:03,42.805,6.029,-0.03,0.0,-0.016,108.0,107.0,106.0,13.3,1505.2,316.2,-0.7,1.8,2471.408,13.29,0.03,270.0
2023-03-04T06:04:03,42.805,6.029,-0.021,0.0,0.021,108.0,107.0,106.0,13.4,1505.2,331.4,-0.8,1.8,2471.409,13.29,0.021,270.0
2023-03-04T06:07:03,42.805,6.029,-0.027,-0.002,0.01,111.0,108.0,105.0,13.3,1505.2,333.8,-0.8,1.8,2471.455,13.29,0.027,265.8
2023-03-04T06:10:03,42.805,6.029,-0.036,0.017,-0.02,109.0,108.0,105.0,13.3,1505.2,328.1,-0.7,1.8,2471.425,13.29,0.039,295.3
2023-03-04T06:13:03,42.805,6.029,-0.019,0.031,0.026,107.0,108.0,105.0,13.3,1505.2,332.1,-0.8,1.8,2471.437,13.29,0.036,328.5
2023-03-04T06:16:03,42.805,6.029,-0.021,0.022,0.02,108.0,107.0,105.0,13.3,1505.2,331.1,-0.8,1.8,2471.428,13.29,0.03,316.3
2023-03-04T06:19:03,42.805,6.029,-0.016,0.035,0.013,108.0,107.0,106.0,13.3,1505.2,334.7,-0.8,1.8,2471.425,13.29,0.038,335.4
2023-03-04T06:22:03,42.805,6.029,-0.023,0.008,0.002,109.0,109.0,106.0,13.4,1505.2,322.2,-0.8,1.8,2471.426,13.29,0.024,289.2
2023-03-04T06:25:03,42.805,6.029,-0.008,0.041,-0.001,109.0,108.0,106.0,13.3,1505.2,326.5,-0.8,1.8,2471.398,13.29,0.041,349.0
2023-03-04T06:28:03,42.805,6.029,-0.023,-0.001,-0.048,109.0,108.0,106.0,13.4,1505.2,337.6,-0.8,1.8,2471.418,13.29,0.023,267.5
2023-03-04T06:31:03,42.805,6.029,-0.022,0.014,0.015,108.0,107.0,106.0,13.3,1505.2,316.0,-0.8,1.8,2471.405,13.29,0.026,302.5
2023-03-04T06:34:03,42.805,6.029,-0.012,0.01,0.009,108.0,107.0,104.0,13.4,1505.2,317.3,-0.8,1.9,2471.411,13.29,0.015,309.8
2023-03-04T06:37:03,42.805,6.029,-0.018,0.009,-0.016,108.0,107.0,105.0,13.4,1505.2,328.1,-0.7,1.8,2471.391,13.29,0.02,296.6
2023-03-04T06:40:03,42.805,6.029,-0.019,0.021,-0.016,107.0,107.0,105.0,13.4,1505.2,339.2,-0.7,1.8,2471.391,13.29,0.028,317.9
2023-03-04T06:43:03,42.805,6.029,-0.02,0.031,-0.035,108.0,108.0,105.0,13.4,1505.2,329.7,-0.8,1.8,2471.408,13.29,0.036,327.2
2023-03-04T06:46:03,42.805,6.029,-0.021,0.002,-0.012,107.0,107.0,105.0,13.4,1505.2,329.9,-0.7,1.8,2471.352,13.29,0.021,275.4
2023-03-04T06:49:03,42.805,6.029,-0.006,0.007,-0.004,108.0,108.0,106.0,13.4,1505.2,331.6,-0.8,1.8,2471.448,13.29,0.009,319.4
2023-03-04T06:52:03,42.805,6.029,-0.017,0.018,0.0,109.0,105.0,107.0,13.3,1505.2,323.4,-0.7,1.8,2471.416,13.29,0.024,316.6
2023-03-04T06:55:03,42.805,6.029,-0.033,0.008,0.007,108.0,107.0,105.0,13.4,1505.2,324.3,-0.8,1.8,2471.418,13.29,0.033,283.6
2023-03-04T06:58:03,42.805,6.029,-0.019,0.021,-0.003,108.0,108.0,105.0,13.3,1505.2,327.2,-0.8,1.8,2471.389,13.29,0.028,317.9
2023-03-04T07:04:03,42.805,6.029,-0.009,0.004,-0.027,106.0,106.0,105.0,13.4,1505.2,322.2,-0.8,1.8,2471.476,13.29,0.009,294.0
2023-03-04T07:07:03,42.805,6.029,-0.023,0.023,0.005,108.0,108.0,105.0,13.4,1505.2,331.2,-0.8,1.8,2471.433,13.29,0.032,315.0
2023-03-04T07:10:03,42.805,6.029,0.003,0.004,-0.003,108.0,108.0,104.0,13.4,1505.2,324.6,-0.8,1.8,2471.463,13.29,0.005,36.9
2023-03-04T07:13:03,42.805,6.029,-0.02,0.04,-0.028,109.0,107.0,106.0,13.3,1505.2,331.3,-0.8,1.8,2471.407,13.29,0.044,333.4
2023-03-04T07:16:03,42.805,6.029,-0.002,0.008,0.004,107.0,107.0,105.0,13.4,1505.2,324.4,-0.8,1.8,2471.426,13.29,0.008,346.0
2023-03-04T07:19:03,42.805,6.029,-0.011,0.012,-0.011,106.0,107.0,104.0,13.3,1505.2,335.7,-0.8,1.8,2471.422,13.29,0.016,317.5
2023-03-04T07:22:03,42.805,6.029,-0.003,0.005,-0.033,108.0,107.0,105.0,13.4,1505.2,339.9,-0.8,1.8,2471.388,13.29,0.005,329.0
2023-03-04T07:25:03,42.805,6.029,-0.003,0.009,0.019,108.0,108.0,105.0,13.4,1505.2,324.2,-0.8,1.8,2471.448,13.29,0.009,341.6
2023-03-04T07:28:03,42.805,6.029,0.001,0.009,-0.023,109.0,108.0,105.0,13.4,1505.2,321.6,-0.8,1.8,2471.423,13.29,0.009,6.3
2023-03-04T07:31:03,42.805,6.029,-0.017,-0.005,-0.005,107.0,107.0,105.0,13.4,1505.2,327.1,-0.8,1.8,2471.44,13.29,0.017,253.6
2023-03-04T07:34:03,42.805,6.029,-0.013,0.009,-0.004,107.0,108.0,105.0,13.3,1505.2,331.7,-0.8,1.8,2471.433,13.29,0.015,304.7
2023-03-04T07:37:03,42.805,6.029,-0.014,0.017,0.005,108.0,107.0,105.0,13.4,1505.2,335.8,-0.8,1.9,2471.407,13.29,0.022,320.5
2023-03-04T07:40:03,42.805,6.029,-0.004,0.007,0.01,106.0,107.0,104.0,13.4,1505.2,330.3,-0.8,1.8,2471.397,13.29,0.008,330.3
2023-03-04T07:43:03,42.805,6.029,-0.013,0.024,0.003,106.0,107.0,105.0,13.3,1505.2,332.3,-0.8,1.8,2471.376,13.29,0.027,331.6
2023-03-04T07:46:03,42.805,6.029,0.007,0.006,0.0,109.0,107.0,106.0,13.4,1505.2,328.8,-0.8,1.8,2471.404,13.29,0.009,49.4
2023-03-04T07:49:03,42.805,6.029,-0.012,0.0,0.016,106.0,106.0,104.0,13.3,1505.2,332.2,-0.8,1.8,2471.421,13.29,0.012,270.0
2023-03-04T07:52:03,42.805,6.029,-0.009,0.012,-0.005,108.0,106.0,104.0,13.3,1505.2,327.4,-0.7,1.8,2471.396,13.29,0.015,323.1
2023-03-04T07:55:03,42.805,6.029,0.012,0.007,-0.019,107.0,107.0,106.0,13.3,1505.2,321.5,-0.8,1.8,2471.413,13.29,0.013,59.7
2023-03-04T07:58:03,42.805,6.029,-0.007,-0.003,0.004,106.0,108.0,103.0,13.3,1505.2,338.0,-0.8,1.8,2471.356,13.29,0.007,246.8
2023-03-04T08:04:03,42.805,6.029,0.003,0.013,-0.014,106.0,106.0,104.0,13.4,1505.2,319.4,-0.8,1.8,2471.428,13.29,0.013,13.0
2023-03-04T08:07:02,42.805,6.029,0.014,0.018,0.008,107.0,107.0,105.0,13.4,1505.2,338.0,-0.8,1.8,2471.459,13.29,0.022,37.9
2023-03-04T08:10:02,42.805,6.029,0.0,0.0,0.007,107.0,106.0,105.0,13.4,1505.2,336.2,-0.8,1.8,2471.445,13.29,0.0,0.0
2023-03-04T08:13:02,42.805,6.029,-0.013,0.013,0.005,107.0,106.0,104.0,13.3,1505.2,317.2,-0.8,1.8,2471.418,13.29,0.018,315.0
2023-03-04T08:16:02,42.805,6.029,-0.027,0.014,0.018,108.0,105.0,104.0,13.4,1505.2,317.2,-0.7,1.8,2471.366,13.29,0.03,297.4
2023-03-04T08:19:02,42.805,6.029,0.0,0.016,-0.008,107.0,106.0,105.0,13.3,1505.2,327.9,-0.8,1.8,2471.4,13.29,0.016,0.0
2023-03-04T08:22:02,42.805,6.029,0.009,0.017,-0.011,106.0,106.0,104.0,13.4,1505.2,331.5,-0.8,1.8,2471.406,13.29,0.019,27.9
2023-03-04T08:25:02,42.805,6.029,-0.013,0.01,0.03,106.0,108.0,104.0,13.3,1505.2,339.3,-0.7,1.8,2471.371,13.29,0.016,307.6
2023-03-04T08:28:03,42.805,6.029,-0.006,0.022,-0.023,106.0,107.0,104.0,13.3,1505.2,334.2,-0.7,1.8,2471.405,13.29,0.022,344.7
2023-03-04T08:31:02,42.805,6.029,0.011,0.031,-0.001,106.0,106.0,104.0,13.3,1505.2,338.9,-0.7,1.8,2471.402,13.29,0.032,19.5
2023-03-04T08:34:03,42.805,6.029,-0.017,0.008,-0.004,107.0,106.0,105.0,13.4,1505.2,323.6,-0.8,1.8,2471.403,13.29,0.018,295.2
2023-03-04T08:37:02,42.805,6.029,0.0,0.018,-0.034,106.0,106.0,104.0,13.4,1505.2,317.2,-0.8,1.8,2471.401,13.29,0.018,0.0
2023-03-04T08:40:03,42.805,6.029,0.002,0.013,-0.005,107.0,107.0,105.0,13.3,1505.2,315.0,-0.7,1.8,2471.398,13.29,0.013,8.7
2023-03-04T08:43:03,42.805,6.029,0.023,0.011,-0.01,106.0,106.0,104.0,13.4,1505.2,317.2,-0.7,1.8,2471.381,13.29,0.025,64.4
2023-03-04T08:46:03,42.805,6.029,-0.005,0.022,-0.021,107.0,108.0,104.0,13.4,1505.2,317.2,-0.7,1.8,2471.394,13.29,0.022,347.2
2023-03-04T08:49:03,42.805,6.029,-0.001,-0.003,-0.017,106.0,107.0,104.0,13.4,1505.2,316.0,-0.8,1.8,2471.364,13.29,0.003,198.4
2023-03-04T08:52:02,42.805,6.029,-0.002,0.016,-0.006,107.0,106.0,104.0,13.4,1505.2,329.1,-0.7,1.8,2471.353,13.29,0.016,352.9
2023-03-04T08:55:03,42.805,6.029,-0.012,-0.004,-0.023,109.0,107.0,104.0,13.3,1505.2,316.2,-0.8,1.8,2471.374,13.29,0.012,251.6
2023-03-04T08:58:03,42.805,6.029,0.019,0.004,0.007,107.0,106.0,104.0,13.3,1505.2,332.5,-0.8,1.8,2471.335,13.29,0.019,78.1
2023-03-04T09:04:02,42.805,6.029,-0.007,0.006,-0.018,108.0,107.0,104.0,13.3,1505.2,317.8,-0.8,1.8,2471.413,13.29,0.009,310.6
2023-03-04T09:07:02,42.805,6.029,-0.008,0.021,-0.033,106.0,108.0,105.0,13.4,1505.2,327.2,-0.8,1.8,2471.355,13.29,0.022,339.1
2023-03-04T09:10:03,42.805,6.029,0.012,-0.028,-0.026,107.0,105.0,105.0,13.3,1505.2,333.8,-0.8,1.8,2471.382,13.29,0.03,156.8
2023-03-04T09:13:03,42.805,6.029,-0.005,0.025,-0.006,106.0,111.0,105.0,13.4,1505.2,326.3,-0.8,1.8,2471.411,13.29,0.025,348.7
2023-03-04T09:16:03,42.805,6.029,0.003,0.016,-0.01,107.0,108.0,106.0,13.4,1505.2,328.7,-0.8,1.8,2471.363,13.29,0.016,10.6
2023-03-04T09:19:03,42.805,6.029,0.023,0.011,-0.003,106.0,108.0,105.0,13.4,1505.2,338.5,-0.8,1.8,2471.379,13.29,0.025,64.4
2023-03-04T09:22:03,42.805,6.029,-0.002,0.005,-0.042,106.0,107.0,105.0,13.4,1505.2,323.7,-0.8,1.8,2471.352,13.29,0.005,338.2
2023-03-04T09:25:03,42.805,6.029,-0.014,-0.002,-0.011,108.0,106.0,104.0,13.4,1505.2,331.4,-0.8,1.8,2471.37,13.29,0.014,261.9
2023-03-04T09:28:03,42.805,6.029,0.003,-0.004,-0.017,107.0,105.0,107.0,13.4,1505.2,331.5,-0.8,1.8,2471.352,13.3,0.005,143.1
2023-03-04T09:31:03,42.805,6.029,0.021,-0.005,-0.019,106.0,106.0,105.0,13.3,1505.2,323.8,-0.7,1.8,2471.333,13.3,0.021,103.4
2023-03-04T09:34:03,42.805,6.029,-0.006,0.003,-0.03,107.0,106.0,103.0,13.3,1505.2,335.8,-0.7,1.8,2471.311,13.29,0.006,296.6
2023-03-04T09:37:03,42.805,6.029,-0.006,0.01,-0.047,106.0,105.0,106.0,13.4,1505.2,336.1,-0.8,1.8,2471.374,13.29,0.011,329.0
2023-03-04T09:40:03,42.805,6.029,0.019,0.0,0.018,106.0,109.0,104.0,13.4,1505.2,338.5,-0.7,1.8,2471.357,13.3,0.019,90.0
2023-03-04T09:43:03,42.805,6.029,0.006,0.002,-0.026,105.0,106.0,105.0,13.4,1505.2,341.5,-0.8,1.8,2471.333,13.3,0.006,71.6
2023-03-04T09:46:03,42.805,6.029,0.007,0.011,-0.009,106.0,107.0,105.0,13.3,1505.2,325.0,-0.7,1.8,2471.324,13.3,0.013,32.5
2023-03-04T09:49:03,42.805,6.029,0.004,-0.007,-0.012,108.0,105.0,106.0,13.3,1505.2,323.8,-0.8,1.8,2471.361,13.29,0.008,150.3
2023-03-04T09:52:03,42.805,6.029,0.011,0.002,-0.008,108.0,108.0,104.0,13.4,1505.2,338.0,-0.8,1.8,2471.349,13.29,0.011,79.7
2023-03-04T09:55:03,42.805,6.029,0.02,-0.001,-0.022,107.0,107.0,108.0,13.4,1505.2,327.3,-0.8,1.8,2471.318,13.3,0.02,92.9